Year,Month,Day,Hour,Minute,Value (Times are PST for temperature in C)
2008,10,18,00,00,9.10
2008,10,18,00,01,9.10
2008,10,18,00,02,9.10
2008,10,18,00,03,9.00
2008,10,18,00,04,9.00
2008,10,18,00,05,9.00
2008,10,18,00,06,8.90
2008,10,18,00,07,8.90
2008,10,18,00,08,8.90
2008,10,18,00,09,8.90
2008,10,18,00,10,8.80
2008,10,18,00,11,8.80
2008,10,18,00,12,8.80
2008,10,18,00,13,8.80
2008,10,18,00,14,8.80
2008,10,18,00,15,8.80
2008,10,18,00,16,8.80
2008,10,18,00,17,8.80
2008,10,18,00,18,8.70
2008,10,18,00,19,8.70
2008,10,18,00,20,8.70
2008,10,18,00,21,8.60
2008,10,18,00,22,8.60
2008,10,18,00,23,8.60
2008,10,18,00,24,8.60
2008,10,18,00,25,8.60
2008,10,18,00,26,8.60
2008,10,18,00,27,8.60
2008,10,18,00,28,8.60
2008,10,18,00,29,8.50
2008,10,18,00,30,8.50
2008,10,18,00,31,8.50
2008,10,18,00,32,8.50
2008,10,18,00,33,8.50
2008,10,18,00,34,8.50
2008,10,18,00,35,8.50
2008,10,18,00,36,8.50
2008,10,18,00,37,8.50
2008,10,18,00,38,8.50
2008,10,18,00,39,8.50
2008,10,18,00,40,8.50
2008,10,18,00,41,8.40
2008,10,18,00,42,8.40
2008,10,18,00,43,8.40
2008,10,18,00,44,8.40
2008,10,18,00,45,8.40
2008,10,18,00,46,8.40
2008,10,18,00,47,8.30
2008,10,18,00,48,8.30
2008,10,18,00,49,8.30
2008,10,18,00,50,8.20
2008,10,18,00,51,8.20
2008,10,18,00,52,8.10
2008,10,18,00,53,8.10
2008,10,18,00,54,8.00
2008,10,18,00,55,7.90
2008,10,18,00,56,7.90
2008,10,18,00,57,7.80
2008,10,18,00,58,7.80
2008,10,18,00,59,7.80
2008,10,18,01,00,7.70
2008,10,18,01,01,7.70
2008,10,18,01,02,7.60
2008,10,18,01,03,7.60
2008,10,18,01,04,7.60
2008,10,18,01,05,7.50
2008,10,18,01,06,7.50
2008,10,18,01,07,7.40
2008,10,18,01,08,7.40
2008,10,18,01,09,7.40
2008,10,18,01,10,7.40
2008,10,18,01,11,7.40
2008,10,18,01,12,7.40
2008,10,18,01,13,7.50
2008,10,18,01,14,7.50
2008,10,18,01,15,7.50
2008,10,18,01,16,7.50
2008,10,18,01,17,7.50
2008,10,18,01,18,7.40
2008,10,18,01,19,7.40
2008,10,18,01,20,7.30
2008,10,18,01,21,7.30
2008,10,18,01,22,7.20
2008,10,18,01,23,7.20
2008,10,18,01,24,7.20
2008,10,18,01,25,7.10
2008,10,18,01,26,7.00
2008,10,18,01,27,6.90
2008,10,18,01,28,6.80
2008,10,18,01,29,6.80
2008,10,18,01,30,6.70
2008,10,18,01,31,6.70
2008,10,18,01,32,6.70
2008,10,18,01,33,6.70
2008,10,18,01,34,6.70
2008,10,18,01,35,6.70
2008,10,18,01,36,6.60
2008,10,18,01,37,6.60
2008,10,18,01,38,6.60
2008,10,18,01,39,6.60
2008,10,18,01,40,6.50
2008,10,18,01,41,6.50
2008,10,18,01,42,6.40
2008,10,18,01,43,6.30
2008,10,18,01,44,6.30
2008,10,18,01,45,6.20
2008,10,18,01,46,6.20
2008,10,18,01,47,6.20
2008,10,18,01,48,6.10
2008,10,18,01,49,6.10
2008,10,18,01,50,6.10
2008,10,18,01,51,6.10
2008,10,18,01,52,6.00
2008,10,18,01,53,6.00
2008,10,18,01,54,6.00
2008,10,18,01,55,6.00
2008,10,18,01,56,6.00
2008,10,18,01,57,6.00
2008,10,18,01,58,6.00
2008,10,18,01,59,5.90
2008,10,18,02,00,5.90
2008,10,18,02,01,5.90
2008,10,18,02,02,5.90
2008,10,18,02,03,5.90
2008,10,18,02,04,5.80
2008,10,18,02,05,5.70
2008,10,18,02,06,5.60
2008,10,18,02,07,5.50
2008,10,18,02,08,5.50
2008,10,18,02,09,5.40
2008,10,18,02,10,5.40
2008,10,18,02,11,5.40
2008,10,18,02,12,5.40
2008,10,18,02,13,5.30
2008,10,18,02,14,5.30
2008,10,18,02,15,5.40
2008,10,18,02,16,5.40
2008,10,18,02,17,5.40
2008,10,18,02,18,5.40
2008,10,18,02,19,5.40
2008,10,18,02,20,5.50
2008,10,18,02,21,5.50
2008,10,18,02,22,5.50
2008,10,18,02,23,5.50
2008,10,18,02,24,5.50
2008,10,18,02,25,5.50
2008,10,18,02,26,5.40
2008,10,18,02,27,5.40
2008,10,18,02,28,5.40
2008,10,18,02,29,5.40
2008,10,18,02,30,5.30
2008,10,18,02,31,5.30
2008,10,18,02,32,5.30
2008,10,18,02,33,5.20
2008,10,18,02,34,5.20
2008,10,18,02,35,5.20
2008,10,18,02,36,5.20
2008,10,18,02,37,5.30
2008,10,18,02,38,5.20
2008,10,18,02,39,5.20
2008,10,18,02,40,5.20
2008,10,18,02,41,5.20
2008,10,18,02,42,5.20
2008,10,18,02,43,5.20
2008,10,18,02,44,5.20
2008,10,18,02,45,5.10
2008,10,18,02,46,5.10
2008,10,18,02,47,5.10
2008,10,18,02,48,5.00
2008,10,18,02,49,5.00
2008,10,18,02,50,4.90
2008,10,18,02,51,4.90
2008,10,18,02,52,4.90
2008,10,18,02,53,4.80
2008,10,18,02,54,4.80
2008,10,18,02,55,4.80
2008,10,18,02,56,4.80
2008,10,18,02,57,4.70
2008,10,18,02,58,4.70
2008,10,18,02,59,4.70
2008,10,18,03,00,4.70
2008,10,18,03,01,4.70
2008,10,18,03,02,4.60
2008,10,18,03,03,4.60
2008,10,18,03,04,4.60
2008,10,18,03,05,4.60
2008,10,18,03,06,4.60
2008,10,18,03,07,4.60
2008,10,18,03,08,4.50
2008,10,18,03,09,4.50
2008,10,18,03,10,4.50
2008,10,18,03,11,4.60
2008,10,18,03,12,4.60
2008,10,18,03,13,4.60
2008,10,18,03,14,4.60
2008,10,18,03,15,4.60
2008,10,18,03,16,4.60
2008,10,18,03,17,4.60
2008,10,18,03,18,4.60
2008,10,18,03,19,4.60
2008,10,18,03,20,4.60
2008,10,18,03,21,4.60
2008,10,18,03,22,4.60
2008,10,18,03,23,4.50
2008,10,18,03,24,4.50
2008,10,18,03,25,4.40
2008,10,18,03,26,4.40
2008,10,18,03,27,4.30
2008,10,18,03,28,4.30
2008,10,18,03,29,4.20
2008,10,18,03,30,4.20
2008,10,18,03,31,4.10
2008,10,18,03,32,4.10
2008,10,18,03,33,4.10
2008,10,18,03,34,4.10
2008,10,18,03,35,4.10
2008,10,18,03,36,4.10
2008,10,18,03,37,4.10
2008,10,18,03,38,4.10
2008,10,18,03,39,4.10
2008,10,18,03,40,4.10
2008,10,18,03,41,4.10
2008,10,18,03,42,4.10
2008,10,18,03,43,4.10
2008,10,18,03,44,4.00
2008,10,18,03,45,4.00
2008,10,18,03,46,4.00
2008,10,18,03,47,4.00
2008,10,18,03,48,4.00
2008,10,18,03,49,4.00
2008,10,18,03,50,4.00
2008,10,18,03,51,4.00
2008,10,18,03,52,3.90
2008,10,18,03,53,3.90
2008,10,18,03,54,3.90
2008,10,18,03,55,3.90
2008,10,18,03,56,4.00
2008,10,18,03,57,4.00
2008,10,18,03,58,4.10
2008,10,18,03,59,4.10
2008,10,18,04,00,4.10
2008,10,18,04,01,4.20
2008,10,18,04,02,4.20
2008,10,18,04,03,4.20
2008,10,18,04,04,4.20
2008,10,18,04,05,4.30
2008,10,18,04,06,4.20
2008,10,18,04,07,4.20
2008,10,18,04,08,4.20
2008,10,18,04,09,4.20
2008,10,18,04,10,4.20
2008,10,18,04,11,4.10
2008,10,18,04,12,4.00
2008,10,18,04,13,4.00
2008,10,18,04,14,3.90
2008,10,18,04,15,3.90
2008,10,18,04,16,3.90
2008,10,18,04,17,3.90
2008,10,18,04,18,3.80
2008,10,18,04,19,3.80
2008,10,18,04,20,3.70
2008,10,18,04,21,3.70
2008,10,18,04,22,3.70
2008,10,18,04,23,3.60
2008,10,18,04,24,3.60
2008,10,18,04,25,3.60
2008,10,18,04,26,3.60
2008,10,18,04,27,3.60
2008,10,18,04,28,3.60
2008,10,18,04,29,3.50
2008,10,18,04,30,3.50
2008,10,18,04,31,3.50
2008,10,18,04,32,3.40
2008,10,18,04,33,3.40
2008,10,18,04,34,3.40
2008,10,18,04,35,3.40
2008,10,18,04,36,3.30
2008,10,18,04,37,3.30
2008,10,18,04,38,3.30
2008,10,18,04,39,3.30
2008,10,18,04,40,3.30
2008,10,18,04,41,3.20
2008,10,18,04,42,3.20
2008,10,18,04,43,3.20
2008,10,18,04,44,3.20
2008,10,18,04,45,3.10
2008,10,18,04,46,3.10
2008,10,18,04,47,3.10
2008,10,18,04,48,3.10
2008,10,18,04,49,3.20
2008,10,18,04,50,3.20
2008,10,18,04,51,3.20
2008,10,18,04,52,3.20
2008,10,18,04,53,3.20
2008,10,18,04,54,3.20
2008,10,18,04,55,3.30
2008,10,18,04,56,3.30
2008,10,18,04,57,3.30
2008,10,18,04,58,3.40
2008,10,18,04,59,3.40
2008,10,18,05,00,3.40
2008,10,18,05,01,3.40
2008,10,18,05,02,3.40
2008,10,18,05,03,3.50
2008,10,18,05,04,3.50
2008,10,18,05,05,3.40
2008,10,18,05,06,3.40
2008,10,18,05,07,3.40
2008,10,18,05,08,3.40
2008,10,18,05,09,3.30
2008,10,18,05,10,3.30
2008,10,18,05,11,3.20
2008,10,18,05,12,3.20
2008,10,18,05,13,3.20
2008,10,18,05,14,3.10
2008,10,18,05,15,3.10
2008,10,18,05,16,3.00
2008,10,18,05,17,3.00
2008,10,18,05,18,2.90
2008,10,18,05,19,2.90
2008,10,18,05,20,2.90
2008,10,18,05,21,2.90
2008,10,18,05,22,2.80
2008,10,18,05,23,2.80
2008,10,18,05,24,2.80
2008,10,18,05,25,2.80
2008,10,18,05,26,2.70
2008,10,18,05,27,2.70
2008,10,18,05,28,2.70
2008,10,18,05,29,2.70
2008,10,18,05,30,2.60
2008,10,18,05,31,2.60
2008,10,18,05,32,2.60
2008,10,18,05,33,2.60
2008,10,18,05,34,2.60
2008,10,18,05,35,2.60
2008,10,18,05,36,2.70
2008,10,18,05,37,2.70
2008,10,18,05,38,2.80
2008,10,18,05,39,2.80
2008,10,18,05,40,2.80
2008,10,18,05,41,2.80
2008,10,18,05,42,2.80
2008,10,18,05,43,2.70
2008,10,18,05,44,2.70
2008,10,18,05,45,2.70
2008,10,18,05,46,2.60
2008,10,18,05,47,2.60
2008,10,18,05,48,2.70
2008,10,18,05,49,2.70
2008,10,18,05,50,2.70
2008,10,18,05,51,2.80
2008,10,18,05,52,2.80
2008,10,18,05,53,2.80
2008,10,18,05,54,2.80
2008,10,18,05,55,2.80
2008,10,18,05,56,2.80
2008,10,18,05,57,2.70
2008,10,18,05,58,2.70
2008,10,18,05,59,2.70
2008,10,18,06,00,2.60
2008,10,18,06,01,2.60
2008,10,18,06,02,2.60
2008,10,18,06,03,2.50
2008,10,18,06,04,2.50
2008,10,18,06,05,2.40
2008,10,18,06,06,2.40
2008,10,18,06,07,2.40
2008,10,18,06,08,2.30
2008,10,18,06,09,2.30
2008,10,18,06,10,2.30
2008,10,18,06,11,2.30
2008,10,18,06,12,2.30
2008,10,18,06,13,2.30
2008,10,18,06,14,2.30
2008,10,18,06,15,2.20
2008,10,18,06,16,2.20
2008,10,18,06,17,2.20
2008,10,18,06,18,2.20
2008,10,18,06,19,2.20
2008,10,18,06,20,2.20
2008,10,18,06,21,2.10
2008,10,18,06,22,2.10
2008,10,18,06,23,2.10
2008,10,18,06,24,2.20
2008,10,18,06,25,2.20
2008,10,18,06,26,2.30
2008,10,18,06,27,2.40
2008,10,18,06,28,2.40
2008,10,18,06,29,2.50
2008,10,18,06,30,2.50
2008,10,18,06,31,2.50
2008,10,18,06,32,2.60
2008,10,18,06,33,2.50
2008,10,18,06,34,2.50
2008,10,18,06,35,2.40
2008,10,18,06,36,2.30
2008,10,18,06,37,2.30
2008,10,18,06,38,2.30
2008,10,18,06,39,2.20
2008,10,18,06,40,2.20
2008,10,18,06,41,2.20
2008,10,18,06,42,2.20
2008,10,18,06,43,2.20
2008,10,18,06,44,2.10
2008,10,18,06,45,2.10
2008,10,18,06,46,2.00
2008,10,18,06,47,1.90
2008,10,18,06,48,1.90
2008,10,18,06,49,1.90
2008,10,18,06,50,1.90
2008,10,18,06,51,1.90
2008,10,18,06,52,1.90
2008,10,18,06,53,1.90
2008,10,18,06,54,1.90
2008,10,18,06,55,1.90
2008,10,18,06,56,1.90
2008,10,18,06,57,1.90
2008,10,18,06,58,1.90
2008,10,18,06,59,1.90
2008,10,18,07,00,1.80
2008,10,18,07,01,1.80
2008,10,18,07,02,1.80
2008,10,18,07,03,1.80
2008,10,18,07,04,1.80
2008,10,18,07,05,1.80
2008,10,18,07,06,1.80
2008,10,18,07,07,1.80
2008,10,18,07,08,1.80
2008,10,18,07,09,1.80
2008,10,18,07,10,1.80
2008,10,18,07,11,1.80
2008,10,18,07,12,1.80
2008,10,18,07,13,1.80
2008,10,18,07,14,1.90
2008,10,18,07,15,1.90
2008,10,18,07,16,2.00
2008,10,18,07,17,2.00
2008,10,18,07,18,2.10
2008,10,18,07,19,2.10
2008,10,18,07,20,2.20
2008,10,18,07,21,2.20
2008,10,18,07,22,2.20
2008,10,18,07,23,2.20
2008,10,18,07,24,2.20
2008,10,18,07,25,2.20
2008,10,18,07,26,2.20
2008,10,18,07,27,2.20
2008,10,18,07,28,2.20
2008,10,18,07,29,2.20
2008,10,18,07,30,2.20
2008,10,18,07,31,2.20
2008,10,18,07,32,2.20
2008,10,18,07,33,2.10
2008,10,18,07,34,2.10
2008,10,18,07,35,2.00
2008,10,18,07,36,2.00
2008,10,18,07,37,1.90
2008,10,18,07,38,1.80
2008,10,18,07,39,1.70
2008,10,18,07,40,1.70
2008,10,18,07,41,1.60
2008,10,18,07,42,1.50
2008,10,18,07,43,1.50
2008,10,18,07,44,1.40
2008,10,18,07,45,1.40
2008,10,18,07,46,1.30
2008,10,18,07,47,1.30
2008,10,18,07,48,1.30
2008,10,18,07,49,1.30
2008,10,18,07,50,1.30
2008,10,18,07,51,1.30
2008,10,18,07,52,1.30
2008,10,18,07,53,1.30
2008,10,18,07,54,1.30
2008,10,18,07,55,1.30
2008,10,18,07,56,1.20
2008,10,18,07,57,1.20
2008,10,18,07,58,1.20
2008,10,18,07,59,1.20
2008,10,18,08,00,1.20
2008,10,18,08,01,1.10
2008,10,18,08,02,1.10
2008,10,18,08,03,1.10
2008,10,18,08,04,1.10
2008,10,18,08,05,1.10
2008,10,18,08,06,1.10
2008,10,18,08,07,1.20
2008,10,18,08,08,1.20
2008,10,18,08,09,1.20
2008,10,18,08,10,1.30
2008,10,18,08,11,1.30
2008,10,18,08,12,1.30
2008,10,18,08,13,1.40
2008,10,18,08,14,1.50
2008,10,18,08,15,1.60
2008,10,18,08,16,1.60
2008,10,18,08,17,1.70
2008,10,18,08,18,1.70
2008,10,18,08,19,1.70
2008,10,18,08,20,1.80
2008,10,18,08,21,1.80
2008,10,18,08,22,1.80
2008,10,18,08,23,1.80
2008,10,18,08,24,1.90
2008,10,18,08,25,1.90
2008,10,18,08,26,1.90
2008,10,18,08,27,1.90
2008,10,18,08,28,1.90
2008,10,18,08,29,1.90
2008,10,18,08,30,2.00
2008,10,18,08,31,2.00
2008,10,18,08,32,2.10
2008,10,18,08,33,2.20
2008,10,18,08,34,2.30
2008,10,18,08,35,2.40
2008,10,18,08,36,2.50
2008,10,18,08,37,2.60
2008,10,18,08,38,2.60
2008,10,18,08,39,2.70
2008,10,18,08,40,2.80
2008,10,18,08,41,2.80
2008,10,18,08,42,2.90
2008,10,18,08,43,2.90
2008,10,18,08,44,3.00
2008,10,18,08,45,3.00
2008,10,18,08,46,3.10
2008,10,18,08,47,3.00
2008,10,18,08,48,3.10
2008,10,18,08,49,3.10
2008,10,18,08,50,3.10
2008,10,18,08,51,3.10
2008,10,18,08,52,3.20
2008,10,18,08,53,3.20
2008,10,18,08,54,3.30
2008,10,18,08,55,3.30
2008,10,18,08,56,3.40
2008,10,18,08,57,3.50
2008,10,18,08,58,3.60
2008,10,18,08,59,3.80
2008,10,18,09,00,3.90
2008,10,18,09,01,4.00
2008,10,18,09,02,4.00
2008,10,18,09,03,4.10
2008,10,18,09,04,4.10
2008,10,18,09,05,4.10
2008,10,18,09,06,4.10
2008,10,18,09,07,4.20
2008,10,18,09,08,4.20
2008,10,18,09,09,4.10
2008,10,18,09,10,4.20
2008,10,18,09,11,4.20
2008,10,18,09,12,4.20
2008,10,18,09,13,4.20
2008,10,18,09,14,4.30
2008,10,18,09,15,4.40
2008,10,18,09,16,4.40
2008,10,18,09,17,4.50
2008,10,18,09,18,4.50
2008,10,18,09,19,4.50
2008,10,18,09,20,4.60
2008,10,18,09,21,4.70
2008,10,18,09,22,4.80
2008,10,18,09,23,4.90
2008,10,18,09,24,5.00
2008,10,18,09,25,5.10
2008,10,18,09,26,5.20
2008,10,18,09,27,5.20
2008,10,18,09,28,5.30
2008,10,18,09,29,5.50
2008,10,18,09,30,5.70
2008,10,18,09,31,5.80
2008,10,18,09,32,6.00
2008,10,18,09,33,6.10
2008,10,18,09,34,6.30
2008,10,18,09,35,6.40
2008,10,18,09,36,6.50
2008,10,18,09,37,6.60
2008,10,18,09,38,6.70
2008,10,18,09,39,6.70
2008,10,18,09,40,6.80
2008,10,18,09,41,6.80
2008,10,18,09,42,6.90
2008,10,18,09,43,7.00
2008,10,18,09,44,7.00
2008,10,18,09,45,7.10
2008,10,18,09,46,7.20
2008,10,18,09,47,7.20
2008,10,18,09,48,7.20
2008,10,18,09,49,7.30
2008,10,18,09,50,7.30
2008,10,18,09,51,7.40
2008,10,18,09,52,7.50
2008,10,18,09,53,7.50
2008,10,18,09,54,7.60
2008,10,18,09,55,7.70
2008,10,18,09,56,7.80
2008,10,18,09,57,7.90
2008,10,18,09,58,8.00
2008,10,18,09,59,8.10
2008,10,18,10,00,8.20
2008,10,18,10,01,8.30
2008,10,18,10,02,8.40
2008,10,18,10,03,8.40
2008,10,18,10,04,8.50
2008,10,18,10,05,8.60
2008,10,18,10,06,8.70
2008,10,18,10,07,8.80
2008,10,18,10,08,8.80
2008,10,18,10,09,8.90
2008,10,18,10,10,9.00
2008,10,18,10,11,9.00
2008,10,18,10,12,9.10
2008,10,18,10,13,9.20
2008,10,18,10,14,9.20
2008,10,18,10,15,9.20
2008,10,18,10,16,9.30
2008,10,18,10,17,9.30
2008,10,18,10,18,9.30
2008,10,18,10,19,9.40
2008,10,18,10,20,9.40
2008,10,18,10,21,9.40
2008,10,18,10,22,9.40
2008,10,18,10,23,9.40
2008,10,18,10,24,9.40
2008,10,18,10,25,9.50
2008,10,18,10,26,9.60
2008,10,18,10,27,9.70
2008,10,18,10,28,9.80
2008,10,18,10,29,9.80
2008,10,18,10,30,9.90
2008,10,18,10,31,10.00
2008,10,18,10,32,10.10
2008,10,18,10,33,10.20
2008,10,18,10,34,10.20
2008,10,18,10,35,10.20
2008,10,18,10,36,10.20
2008,10,18,10,37,10.30
2008,10,18,10,38,10.30
2008,10,18,10,39,10.30
2008,10,18,10,40,10.30
2008,10,18,10,41,10.40
2008,10,18,10,42,10.60
2008,10,18,10,43,10.70
2008,10,18,10,44,10.90
2008,10,18,10,45,11.00
2008,10,18,10,46,11.10
2008,10,18,10,47,11.20
2008,10,18,10,48,11.30
2008,10,18,10,49,11.40
2008,10,18,10,50,11.50
2008,10,18,10,51,11.60
2008,10,18,10,52,11.70
2008,10,18,10,53,11.90
2008,10,18,10,54,12.00
2008,10,18,10,55,12.10
2008,10,18,10,56,12.30
2008,10,18,10,57,12.30
2008,10,18,10,58,12.30
2008,10,18,10,59,12.40
2008,10,18,11,00,12.30
2008,10,18,11,01,12.40
2008,10,18,11,02,12.40
2008,10,18,11,03,12.40
2008,10,18,11,04,12.40
2008,10,18,11,05,12.40
2008,10,18,11,06,12.40
2008,10,18,11,07,12.40
2008,10,18,11,08,12.40
2008,10,18,11,09,12.40
2008,10,18,11,10,12.30
2008,10,18,11,11,12.30
2008,10,18,11,12,12.30
2008,10,18,11,13,12.30
2008,10,18,11,14,12.40
2008,10,18,11,15,12.40
2008,10,18,11,16,12.40
2008,10,18,11,17,12.50
2008,10,18,11,18,12.60
2008,10,18,11,19,12.60
2008,10,18,11,20,12.60
2008,10,18,11,21,12.50
2008,10,18,11,22,12.50
2008,10,18,11,23,12.40
2008,10,18,11,24,12.40
2008,10,18,11,25,12.50
2008,10,18,11,26,12.50
2008,10,18,11,27,12.50
2008,10,18,11,28,12.60
2008,10,18,11,29,12.60
2008,10,18,11,30,12.60
2008,10,18,11,31,12.70
2008,10,18,11,32,12.70
2008,10,18,11,33,12.70
2008,10,18,11,34,12.80
2008,10,18,11,35,12.80
2008,10,18,11,36,12.90
2008,10,18,11,37,12.90
2008,10,18,11,38,12.90
2008,10,18,11,39,12.90
2008,10,18,11,40,12.80
2008,10,18,11,41,12.70
2008,10,18,11,42,12.70
2008,10,18,11,43,12.60
2008,10,18,11,44,12.60
2008,10,18,11,45,12.70
2008,10,18,11,46,12.70
2008,10,18,11,47,12.80
2008,10,18,11,48,12.80
2008,10,18,11,49,12.90
2008,10,18,11,50,12.90
2008,10,18,11,51,12.80
2008,10,18,11,52,12.80
2008,10,18,11,53,12.80
2008,10,18,11,54,12.80
2008,10,18,11,55,12.70
2008,10,18,11,56,12.70
2008,10,18,11,57,12.80
2008,10,18,11,58,12.80
2008,10,18,11,59,12.90
2008,10,18,12,00,12.90
2008,10,18,12,01,12.90
2008,10,18,12,02,13.00
2008,10,18,12,03,13.00
2008,10,18,12,04,13.10
2008,10,18,12,05,13.10
2008,10,18,12,06,13.10
2008,10,18,12,07,13.00
2008,10,18,12,08,13.00
2008,10,18,12,09,13.10
2008,10,18,12,10,13.10
2008,10,18,12,11,13.00
2008,10,18,12,12,13.00
2008,10,18,12,13,12.90
2008,10,18,12,14,12.90
2008,10,18,12,15,12.90
2008,10,18,12,16,12.90
2008,10,18,12,17,13.00
2008,10,18,12,18,12.90
2008,10,18,12,19,12.90
2008,10,18,12,20,12.80
2008,10,18,12,21,12.70
2008,10,18,12,22,12.70
2008,10,18,12,23,12.60
2008,10,18,12,24,12.60
2008,10,18,12,25,12.60
2008,10,18,12,26,12.50
2008,10,18,12,27,12.50
2008,10,18,12,28,12.40
2008,10,18,12,29,12.40
2008,10,18,12,30,12.40
2008,10,18,12,31,12.50
2008,10,18,12,32,12.50
2008,10,18,12,33,12.50
2008,10,18,12,34,12.40
2008,10,18,12,35,12.40
2008,10,18,12,36,12.30
2008,10,18,12,37,12.30
2008,10,18,12,38,12.30
2008,10,18,12,39,12.30
2008,10,18,12,40,12.30
2008,10,18,12,41,12.30
2008,10,18,12,42,12.30
2008,10,18,12,43,12.40
2008,10,18,12,44,12.40
2008,10,18,12,45,12.30
2008,10,18,12,46,12.40
2008,10,18,12,47,12.40
2008,10,18,12,48,12.30
2008,10,18,12,49,12.30
2008,10,18,12,50,12.20
2008,10,18,12,51,12.20
2008,10,18,12,52,12.10
2008,10,18,12,53,12.10
2008,10,18,12,54,12.00
2008,10,18,12,55,12.00
2008,10,18,12,56,12.00
2008,10,18,12,57,12.00
2008,10,18,12,58,12.00
2008,10,18,12,59,12.00
2008,10,18,13,00,12.00
2008,10,18,13,01,12.10
2008,10,18,13,02,12.10
2008,10,18,13,03,12.10
2008,10,18,13,04,12.10
2008,10,18,13,05,12.10
2008,10,18,13,06,12.10
2008,10,18,13,07,12.10
2008,10,18,13,08,12.10
2008,10,18,13,09,12.10
2008,10,18,13,10,12.10
2008,10,18,13,11,12.10
2008,10,18,13,12,12.10
2008,10,18,13,13,12.10
2008,10,18,13,14,12.10
2008,10,18,13,15,12.10
2008,10,18,13,16,12.10
2008,10,18,13,17,12.10
2008,10,18,13,18,12.10
2008,10,18,13,19,12.20
2008,10,18,13,20,12.20
2008,10,18,13,21,12.20
2008,10,18,13,22,12.30
2008,10,18,13,23,12.30
2008,10,18,13,24,12.30
2008,10,18,13,25,12.30
2008,10,18,13,26,12.40
2008,10,18,13,27,12.40
2008,10,18,13,28,12.40
2008,10,18,13,29,12.30
2008,10,18,13,30,12.30
2008,10,18,13,31,12.30
2008,10,18,13,32,12.30
2008,10,18,13,33,12.30
2008,10,18,13,34,12.30
2008,10,18,13,35,12.30
2008,10,18,13,36,12.40
2008,10,18,13,37,12.40
2008,10,18,13,38,12.50
2008,10,18,13,39,12.60
2008,10,18,13,40,12.70
2008,10,18,13,41,12.70
2008,10,18,13,42,12.70
2008,10,18,13,43,12.60
2008,10,18,13,44,12.60
2008,10,18,13,45,12.50
2008,10,18,13,46,12.50
2008,10,18,13,47,12.40
2008,10,18,13,48,12.40
2008,10,18,13,49,12.40
2008,10,18,13,50,12.40
2008,10,18,13,51,12.40
2008,10,18,13,52,12.40
2008,10,18,13,53,12.40
2008,10,18,13,54,12.50
2008,10,18,13,55,12.50
2008,10,18,13,56,12.50
2008,10,18,13,57,12.60
2008,10,18,13,58,12.60
2008,10,18,13,59,12.60
2008,10,18,14,00,12.60
2008,10,18,14,01,12.60
2008,10,18,14,02,12.50
2008,10,18,14,03,12.50
2008,10,18,14,04,12.40
2008,10,18,14,05,12.40
2008,10,18,14,06,12.50
2008,10,18,14,07,12.50
2008,10,18,14,08,12.50
2008,10,18,14,09,12.40
2008,10,18,14,10,12.40
2008,10,18,14,11,12.40
2008,10,18,14,12,12.40
2008,10,18,14,13,12.40
2008,10,18,14,14,12.40
2008,10,18,14,15,12.30
2008,10,18,14,16,12.20
2008,10,18,14,17,12.20
2008,10,18,14,18,12.10
2008,10,18,14,19,12.00
2008,10,18,14,20,12.00
2008,10,18,14,21,12.00
2008,10,18,14,22,12.00
2008,10,18,14,23,12.00
2008,10,18,14,24,12.10
2008,10,18,14,25,12.10
2008,10,18,14,26,12.20
2008,10,18,14,27,12.20
2008,10,18,14,28,12.20
2008,10,18,14,29,12.30
2008,10,18,14,30,12.30
2008,10,18,14,31,12.30
2008,10,18,14,32,12.20
2008,10,18,14,33,12.20
2008,10,18,14,34,12.30
2008,10,18,14,35,12.30
2008,10,18,14,36,12.30
2008,10,18,14,37,12.30
2008,10,18,14,38,12.30
2008,10,18,14,39,12.30
2008,10,18,14,40,12.30
2008,10,18,14,41,12.30
2008,10,18,14,42,12.30
2008,10,18,14,43,12.30
2008,10,18,14,44,12.40
2008,10,18,14,45,12.40
2008,10,18,14,46,12.50
2008,10,18,14,47,12.60
2008,10,18,14,48,12.70
2008,10,18,14,49,12.70
2008,10,18,14,50,12.80
2008,10,18,14,51,12.80
2008,10,18,14,52,12.70
2008,10,18,14,53,12.70
2008,10,18,14,54,12.70
2008,10,18,14,55,12.70
2008,10,18,14,56,12.70
2008,10,18,14,57,12.60
2008,10,18,14,58,12.60
2008,10,18,14,59,12.60
2008,10,18,15,00,12.60
2008,10,18,15,01,12.60
2008,10,18,15,02,12.50
2008,10,18,15,03,12.50
2008,10,18,15,04,12.50
2008,10,18,15,05,12.50
2008,10,18,15,06,12.40
2008,10,18,15,07,12.40
2008,10,18,15,08,12.30
2008,10,18,15,09,12.30
2008,10,18,15,10,12.30
2008,10,18,15,11,12.30
2008,10,18,15,12,12.30
2008,10,18,15,13,12.20
2008,10,18,15,14,12.30
2008,10,18,15,15,12.30
2008,10,18,15,16,12.30
2008,10,18,15,17,12.20
2008,10,18,15,18,12.20
2008,10,18,15,19,12.20
2008,10,18,15,20,12.20
2008,10,18,15,21,12.30
2008,10,18,15,22,12.30
2008,10,18,15,23,12.30
2008,10,18,15,24,12.40
2008,10,18,15,25,12.40
2008,10,18,15,26,12.40
2008,10,18,15,27,12.40
2008,10,18,15,28,12.50
2008,10,18,15,29,12.60
2008,10,18,15,30,12.60
2008,10,18,15,31,12.60
2008,10,18,15,32,12.60
2008,10,18,15,33,12.60
2008,10,18,15,34,12.50
2008,10,18,15,35,12.50
2008,10,18,15,36,12.60
2008,10,18,15,37,12.60
2008,10,18,15,38,12.60
2008,10,18,15,39,12.60
2008,10,18,15,40,12.60
2008,10,18,15,41,12.60
2008,10,18,15,42,12.60
2008,10,18,15,43,12.60
2008,10,18,15,44,12.60
2008,10,18,15,45,12.60
2008,10,18,15,46,12.60
2008,10,18,15,47,12.60
2008,10,18,15,48,12.60
2008,10,18,15,49,12.60
2008,10,18,15,50,12.60
2008,10,18,15,51,12.60
2008,10,18,15,52,12.70
2008,10,18,15,53,12.70
2008,10,18,15,54,12.80
2008,10,18,15,55,12.80
2008,10,18,15,56,12.80
2008,10,18,15,57,12.90
2008,10,18,15,58,12.90
2008,10,18,15,59,12.90
2008,10,18,16,00,12.90
2008,10,18,16,01,13.00
2008,10,18,16,02,13.10
2008,10,18,16,03,13.10
2008,10,18,16,04,13.00
2008,10,18,16,05,13.00
2008,10,18,16,06,12.90
2008,10,18,16,07,12.90
2008,10,18,16,08,12.90
2008,10,18,16,09,12.90
2008,10,18,16,10,12.90
2008,10,18,16,11,12.80
2008,10,18,16,12,12.80
2008,10,18,16,13,12.80
2008,10,18,16,14,12.80
2008,10,18,16,15,12.80
2008,10,18,16,16,12.80
2008,10,18,16,17,12.90
2008,10,18,16,18,13.00
2008,10,18,16,19,13.00
2008,10,18,16,20,13.10
2008,10,18,16,21,13.10
2008,10,18,16,22,13.00
2008,10,18,16,23,12.90
2008,10,18,16,24,12.80
2008,10,18,16,25,12.80
2008,10,18,16,26,12.80
2008,10,18,16,27,12.70
2008,10,18,16,28,12.70
2008,10,18,16,29,12.60
2008,10,18,16,30,12.70
2008,10,18,16,31,12.80
2008,10,18,16,32,12.80
2008,10,18,16,33,12.80
2008,10,18,16,34,12.70
2008,10,18,16,35,12.70
2008,10,18,16,36,12.60
2008,10,18,16,37,12.50
2008,10,18,16,38,12.50
2008,10,18,16,39,12.60
2008,10,18,16,40,12.60
2008,10,18,16,41,12.60
2008,10,18,16,42,12.60
2008,10,18,16,43,12.60
2008,10,18,16,44,12.70
2008,10,18,16,45,12.70
2008,10,18,16,46,12.70
2008,10,18,16,47,12.70
2008,10,18,16,48,12.70
2008,10,18,16,49,12.60
2008,10,18,16,50,12.50
2008,10,18,16,51,12.50
2008,10,18,16,52,12.40
2008,10,18,16,53,12.40
2008,10,18,16,54,12.50
2008,10,18,16,55,12.60
2008,10,18,16,56,12.60
2008,10,18,16,57,12.60
2008,10,18,16,58,12.70
2008,10,18,16,59,12.60
2008,10,18,17,00,12.60
2008,10,18,17,01,12.60
2008,10,18,17,02,12.60
2008,10,18,17,03,12.50
2008,10,18,17,04,12.50
2008,10,18,17,05,12.40
2008,10,18,17,06,12.40
2008,10,18,17,07,12.40
2008,10,18,17,08,12.40
2008,10,18,17,09,12.40
2008,10,18,17,10,12.40
2008,10,18,17,11,12.50
2008,10,18,17,12,12.50
2008,10,18,17,13,12.50
2008,10,18,17,14,12.50
2008,10,18,17,15,12.50
2008,10,18,17,16,12.60
2008,10,18,17,17,12.60
2008,10,18,17,18,12.60
2008,10,18,17,19,12.50
2008,10,18,17,20,12.50
2008,10,18,17,21,12.50
2008,10,18,17,22,12.50
2008,10,18,17,23,12.40
2008,10,18,17,24,12.40
2008,10,18,17,25,12.40
2008,10,18,17,26,12.40
2008,10,18,17,27,12.40
2008,10,18,17,28,12.40
2008,10,18,17,29,12.40
2008,10,18,17,30,12.40
2008,10,18,17,31,12.30
2008,10,18,17,32,12.30
2008,10,18,17,33,12.30
2008,10,18,17,34,12.30
2008,10,18,17,35,12.30
2008,10,18,17,36,12.30
2008,10,18,17,37,12.30
2008,10,18,17,38,12.30
2008,10,18,17,39,12.30
2008,10,18,17,40,12.30
2008,10,18,17,41,12.30
2008,10,18,17,42,12.30
2008,10,18,17,43,12.30
2008,10,18,17,44,12.20
2008,10,18,17,45,12.20
2008,10,18,17,46,12.20